TimeCST,TemperatureF,Dew PointF,Humidity,Sea Level PressureIn,VisibilityMPH,Wind Direction,Wind SpeedMPH,Gust SpeedMPH,PrecipitationIn,Events,Conditions,WindDirDegrees,DateUTC
12:13 AM,33.8,30.2,87,29.90,10.0,Calm,Calm,-,N/A,,Clear,0,2012-11-07 06:13:00
12:33 AM,33.8,30.2,87,29.91,10.0,Calm,Calm,-,N/A,,Clear,0,2012-11-07 06:33:00
12:53 AM,33.8,30.2,87,29.91,10.0,Calm,Calm,-,N/A,,Scattered Clouds,0,2012-11-07 06:53:00
1:13 AM,33.8,30.2,87,29.91,10.0,Calm,Calm,-,N/A,,Scattered Clouds,0,2012-11-07 07:13:00
1:33 AM,33.8,30.2,87,29.92,10.0,Calm,Calm,-,N/A,,Clear,0,2012-11-07 07:33:00
1:53 AM,33.8,30.2,87,29.92,10.0,Calm,Calm,-,N/A,,Scattered Clouds,0,2012-11-07 07:53:00
2:13 AM,33.8,30.2,87,29.93,10.0,Calm,Calm,-,N/A,,Scattered Clouds,0,2012-11-07 08:13:00
2:53 AM,33.8,30.2,87,29.93,10.0,Calm,Calm,-,N/A,,Clear,0,2012-11-07 08:53:00
3:13 AM,33.8,30.2,87,29.94,10.0,Calm,Calm,-,N/A,,Clear,0,2012-11-07 09:13:00
3:33 AM,33.8,30.2,87,29.94,10.0,Calm,Calm,-,N/A,,Scattered Clouds,0,2012-11-07 09:33:00
3:53 AM,33.8,30.2,87,29.94,10.0,Calm,Calm,-,N/A,,Scattered Clouds,0,2012-11-07 09:53:00
4:13 AM,33.8,30.2,87,29.95,7.0,Calm,Calm,-,N/A,,Scattered Clouds,0,2012-11-07 10:13:00
4:33 AM,33.8,30.2,87,29.96,10.0,Calm,Calm,-,N/A,,Scattered Clouds,0,2012-11-07 10:33:00
4:53 AM,33.8,30.2,87,29.96,10.0,Calm,Calm,-,N/A,,Clear,0,2012-11-07 10:53:00
5:13 AM,35.6,30.2,81,29.97,10.0,NW,3.5,-,N/A,,Clear,320,2012-11-07 11:13:00
5:33 AM,35.6,30.2,81,29.97,10.0,Calm,Calm,-,N/A,,Clear,0,2012-11-07 11:33:00
6:13 AM,35.6,32.0,87,29.98,10.0,Calm,Calm,-,N/A,,Mostly Cloudy,0,2012-11-07 12:13:00
6:33 AM,33.8,30.2,87,29.98,10.0,Calm,Calm,-,N/A,,Scattered Clouds,0,2012-11-07 12:33:00
6:53 AM,33.8,30.2,87,29.99,10.0,Calm,Calm,-,N/A,,Scattered Clouds,0,2012-11-07 12:53:00
7:13 AM,33.8,30.2,87,29.99,10.0,Calm,Calm,-,N/A,,Clear,0,2012-11-07 13:13:00
7:33 AM,33.8,30.2,87,30.00,10.0,Calm,Calm,-,N/A,,Clear,0,2012-11-07 13:33:00
7:53 AM,33.8,32.0,93,30.01,10.0,Calm,Calm,-,N/A,,Mostly Cloudy,0,2012-11-07 13:53:00
8:13 AM,35.6,32.0,87,30.01,10.0,Calm,Calm,-,N/A,,Mostly Cloudy,0,2012-11-07 14:13:00
8:33 AM,35.6,32.0,87,30.01,10.0,Calm,Calm,-,N/A,,Scattered Clouds,0,2012-11-07 14:33:00
8:53 AM,35.6,33.8,93,30.02,10.0,Calm,Calm,-,N/A,,Scattered Clouds,0,2012-11-07 14:53:00
9:13 AM,37.4,33.8,87,30.01,10.0,NNW,3.5,-,N/A,,Mostly Cloudy,330,2012-11-07 15:13:00
9:33 AM,37.4,33.8,87,30.02,10.0,Calm,Calm,-,N/A,,Mostly Cloudy,0,2012-11-07 15:33:00
9:53 AM,37.4,33.8,87,30.03,10.0,NNW,3.5,-,N/A,,Scattered Clouds,330,2012-11-07 15:53:00
10:13 AM,37.4,33.8,87,30.04,10.0,WNW,3.5,-,N/A,,Scattered Clouds,300,2012-11-07 16:13:00
10:33 AM,39.2,33.8,81,30.03,10.0,WNW,3.5,-,N/A,,Scattered Clouds,300,2012-11-07 16:33:00
10:53 AM,39.2,32.0,75,30.03,10.0,Calm,Calm,-,N/A,,Scattered Clouds,0,2012-11-07 16:53:00
11:13 AM,39.2,30.2,70,30.03,10.0,Calm,Calm,-,N/A,,Scattered Clouds,0,2012-11-07 17:13:00
11:33 AM,39.2,32.0,75,30.02,10.0,Calm,Calm,-,N/A,,Scattered Clouds,0,2012-11-07 17:33:00
11:53 AM,41.0,30.2,65,30.02,10.0,Calm,Calm,-,N/A,,Scattered Clouds,0,2012-11-07 17:53:00
12:13 PM,41.0,30.2,65,30.01,10.0,Calm,Calm,-,N/A,,Clear,0,2012-11-07 18:13:00
12:33 PM,41.0,30.2,65,30.01,10.0,Calm,Calm,-,N/A,,Scattered Clouds,0,2012-11-07 18:33:00
12:53 PM,39.2,30.2,70,30.01,10.0,Calm,Calm,-,N/A,,Scattered Clouds,0,2012-11-07 18:53:00
1:13 PM,39.2,30.2,70,30.01,10.0,Calm,Calm,-,N/A,,Scattered Clouds,0,2012-11-07 19:13:00
1:33 PM,39.2,30.2,70,30.00,10.0,Calm,Calm,-,N/A,,Clear,0,2012-11-07 19:33:00
1:53 PM,39.2,30.2,70,30.00,10.0,Calm,Calm,-,N/A,,Clear,0,2012-11-07 19:53:00
2:13 PM,39.2,30.2,70,30.01,10.0,Calm,Calm,-,N/A,,Scattered Clouds,0,2012-11-07 20:13:00
2:33 PM,39.2,30.2,70,30.01,10.0,Calm,Calm,-,N/A,,Scattered Clouds,0,2012-11-07 20:33:00
2:53 PM,39.2,30.2,70,30.01,10.0,Calm,Calm,-,N/A,,Scattered Clouds,0,2012-11-07 20:53:00
3:13 PM,39.2,30.2,70,30.02,10.0,Calm,Calm,-,N/A,,Scattered Clouds,0,2012-11-07 21:13:00
3:38 PM,37.4,30.2,75,30.03,10.0,Calm,Calm,-,N/A,,Scattered Clouds,0,2012-11-07 21:38:00
3:53 PM,37.4,30.2,75,30.03,10.0,Calm,Calm,-,N/A,,Scattered Clouds,0,2012-11-07 21:53:00
4:13 PM,37.4,30.2,75,30.03,10.0,Calm,Calm,-,N/A,,Scattered Clouds,0,2012-11-07 22:13:00
4:33 PM,37.4,30.2,75,30.04,10.0,Calm,Calm,-,N/A,,Scattered Clouds,0,2012-11-07 22:33:00
4:53 PM,37.4,30.2,75,30.04,10.0,Calm,Calm,-,N/A,,Scattered Clouds,0,2012-11-07 22:53:00
5:13 PM,37.4,30.2,75,30.04,10.0,Calm,Calm,-,N/A,,Scattered Clouds,0,2012-11-07 23:13:00
5:33 PM,35.6,30.2,81,30.04,10.0,Calm,Calm,-,N/A,,Clear,0,2012-11-07 23:33:00
5:53 PM,35.6,30.2,81,30.04,10.0,Calm,Calm,-,N/A,,Clear,0,2012-11-07 23:53:00
6:13 PM,35.6,30.2,81,30.03,10.0,Calm,Calm,-,N/A,,Clear,0,2012-11-08 00:13:00
6:33 PM,35.6,30.2,81,30.04,10.0,Calm,Calm,-,N/A,,Clear,0,2012-11-08 00:33:00
6:53 PM,35.6,30.2,81,30.03,10.0,Calm,Calm,-,N/A,,Clear,0,2012-11-08 00:53:00
7:13 PM,33.8,30.2,87,30.03,10.0,Calm,Calm,-,N/A,,Clear,0,2012-11-08 01:13:00
7:34 PM,33.8,30.2,87,30.03,10.0,Calm,Calm,-,N/A,,Clear,0,2012-11-08 01:34:00
7:53 PM,33.8,30.2,87,30.02,10.0,Calm,Calm,-,N/A,,Clear,0,2012-11-08 01:53:00
8:13 PM,33.8,30.2,87,30.02,10.0,Calm,Calm,-,N/A,,Clear,0,2012-11-08 02:13:00
8:33 PM,33.8,30.2,87,30.02,10.0,Calm,Calm,-,N/A,,Clear,0,2012-11-08 02:33:00
8:53 PM,33.8,28.4,81,30.02,10.0,Calm,Calm,-,N/A,,Clear,0,2012-11-08 02:53:00
9:13 PM,32.0,28.4,87,30.02,10.0,Calm,Calm,-,N/A,,Clear,0,2012-11-08 03:13:00
9:33 PM,30.2,28.4,93,30.01,10.0,Calm,Calm,-,N/A,,Scattered Clouds,0,2012-11-08 03:33:00
9:53 PM,30.2,28.4,93,30.01,7.0,Calm,Calm,-,N/A,,Scattered Clouds,0,2012-11-08 03:53:00
10:13 PM,30.2,26.6,86,30.02,7.0,Calm,Calm,-,N/A,,Scattered Clouds,0,2012-11-08 04:13:00
10:33 PM,28.4,26.6,93,30.02,7.0,Calm,Calm,-,N/A,,Scattered Clouds,0,2012-11-08 04:33:00
10:53 PM,28.4,26.6,93,30.02,7.0,Calm,Calm,-,N/A,,Mostly Cloudy,0,2012-11-08 04:53:00
11:13 PM,28.4,26.6,93,30.02,7.0,Calm,Calm,-,N/A,,Mostly Cloudy,0,2012-11-08 05:13:00
11:33 PM,28.4,26.6,93,30.02,10.0,Calm,Calm,-,N/A,,Mostly Cloudy,0,2012-11-08 05:33:00
11:53 PM,28.4,26.6,93,30.01,7.0,Calm,Calm,-,N/A,,Scattered Clouds,0,2012-11-08 05:53:00